Location: Unspecified
(50.7822°N, 1.1356°W)
Time: 10:35:50
(UTC+01:00)

Cosmos 1674 - Visible Passes

Search period start: 21 April 2018 00:00
Search period end: 01 May 2018 00:00
Orbit: 496 x 522 km, 82.5° (Epoch: 20 April)

Date Brightness Start Highest point End Pass type
(mag) Time Alt. Az. Time Alt. Az. Time Alt. Az.
25 Apr 5.4 05:09:38 10° SE 05:12:35 22° E 05:15:32 10° NE visible
26 Apr 5.6 04:52:59 10° SE 04:55:35 18° E 04:58:10 10° NE visible
27 Apr 5.7 04:36:28 10° ESE 04:38:34 15° E 04:40:41 10° NE visible
28 Apr 5.8 04:20:13 10° ESE 04:21:35 12° E 04:22:56 10° ENE visible
